GW7110 Weather Reports


Display with metric or nautical units.
time (UTC)temp
F
wind
direction
speed
MPH
gust
MPH
rain 1hr
in
rain 24hr
in
rain mn
in
humidity
%
barometer
mb
20260504070358 50 29 0.0 1.0 0.00 2.20 0.00 84 30.0
20260503235859 66 284 1.0 2.0 0.00 2.20 0.00 42 30.0
20260503235359 66 275 1.0 2.0 0.00 2.20 0.00 42 30.0
20260503234858 68 285 2.0 3.0 0.00 2.20 0.00 40 30.0
20260503233859 68 281 0.0 2.0 0.00 2.20 0.00 39 30.0
20260503233358 69 281 2.0 3.0 0.00 2.20 0.00 38 30.0
20260503232859 69 309 0.0 2.0 0.00 2.20 0.00 38 30.0
20260503231858 69 271 1.0 2.0 0.00 2.20 0.00 37 30.0
20260503231358 69 296 1.0 3.0 0.00 2.20 0.00 37 30.0
20260503230858 70 286 1.0 2.0 0.00 2.20 0.00 37 30.0
20260503230358 69 280 1.0 2.0 0.00 2.20 0.00 37 30.0
20260503225858 70 288 2.0 3.0 0.00 2.20 0.00 38 30.0
20260503225358 70 287 1.0 3.0 0.00 2.20 0.00 37 30.1
20260503224859 70 296 2.0 3.0 0.00 2.20 0.00 37 30.1
20260503224358 70 242 1.0 3.0 0.00 2.20 0.00 37 30.1
20260503223858 70 262 2.0 4.0 0.00 2.20 0.00 38 30.1
20260503223358 71 282 2.0 3.0 0.00 2.20 0.00 39 30.1
20260503222858 71 269 1.0 2.0 0.00 2.20 0.00 38 30.1
20260503222358 71 277 2.0 4.0 0.00 2.20 0.00 39 30.1
20260503221859 70 275 1.0 2.0 0.00 2.20 0.00 39 30.1
20260503221358 71 231 0.0 2.0 0.00 2.20 0.00 39 30.1
20260503220859 71 267 2.0 3.0 0.00 2.20 0.00 38 30.1
20260503220358 71 297 1.0 4.0 0.00 2.20 0.00 40 30.1
20260503215859 71 273 1.0 3.0 0.00 2.20 0.00 39 30.1
20260503215359 71 275 2.0 5.0 0.00 2.20 0.00 40 30.1
20260503214858 71 270 0.0 2.0 0.00 2.20 0.00 40 30.1
20260503214358 71 280 1.0 3.0 0.00 2.20 0.00 39 30.1
20260503213859 71 240 1.0 2.0 0.00 2.20 0.00 40 30.1
20260503213359 71 273 1.0 2.0 0.00 2.20 0.00 39 30.1
20260503212858 71 277 2.0 4.0 0.00 2.20 0.00 38 30.1
20260503212358 71 250 1.0 2.0 0.00 2.20 0.00 40 30.1
20260503211858 71 274 2.0 5.0 0.00 2.20 0.00 40 30.1
20260503211358 71 283 1.0 3.0 0.00 2.20 0.00 39 30.1
20260503210858 71 268 1.0 3.0 0.00 2.20 0.00 40 30.1
20260503210359 71 236 2.0 4.0 0.00 2.20 0.00 39 30.1
20260503205859 72 261 2.0 3.0 0.00 2.20 0.00 38 30.1
20260503205359 72 270 1.0 3.0 0.00 2.20 0.00 42 30.1
20260503204858 71 259 0.0 4.0 0.00 2.20 0.00 41 30.1
20260503204359 72 224 1.0 2.0 0.00 2.20 0.00 39 30.1
20260503203859 70 262 1.0 2.0 0.00 2.20 0.00 41 30.1
20260503203359 70 226 0.0 2.0 0.00 2.20 0.00 41 30.1
20260503202858 70 250 0.0 2.0 0.00 2.20 0.00 41 30.1
20260503202359 70 189 0.0 2.0 0.00 2.20 0.00 40 30.1
20260503201859 70 167 1.0 2.0 0.00 2.20 0.00 39 30.1
20260503201358 69 298 1.0 3.0 0.00 2.20 0.00 41 30.1
20260503200859 69 201 1.0 2.0 0.00 2.20 0.00 43 30.1
20260503200359 69 254 2.0 3.0 0.00 2.20 0.00 42 30.1
20260503195858 70 201 0.0 2.0 0.00 2.20 0.00 43 30.1
20260503194859 69 279 1.0 4.0 0.00 2.20 0.00 44 30.1
20260503194359 69 170 0.0 3.0 0.00 2.20 0.00 43 30.1
20260503193858 69 257 1.0 3.0 0.00 2.20 0.00 44 30.1
20260503193359 68 239 2.0 5.0 0.00 2.20 0.00 45 30.1
20260503192858 68 239 2.0 5.0 0.00 2.20 0.00 45 30.1
20260503192358 69 289 2.0 4.0 0.00 2.20 0.00 45 30.1
20260503191900 68 270 2.0 7.0 0.00 2.20 0.00 45 30.1
20260503191358 68 269 2.0 4.0 0.00 2.20 0.00 45 30.1
20260503190858 68 307 1.0 3.0 0.00 2.20 0.00 44 30.1
20260503190358 68 198 1.0 4.0 0.00 2.20 0.00 45 30.1
20260503184400 66 172 0.0 3.0 0.00 2.20 0.00 44 30.1
20260503183358 65 183 1.0 4.0 0.00 2.20 0.00 44 30.1
20260503182859 66 150 1.0 3.0 0.00 2.20 0.00 45 30.1
20260503181931 65 276 1.0 2.0 0.00 2.20 0.00 43 30.1
20260503181359 65 288 1.0 3.0 0.00 2.20 0.00 45 30.1
20260503180859 65 316 1.0 2.0 0.00 2.20 0.00 43 30.1
20260503180359 64 126 0.0 2.0 0.00 2.20 0.00 43 30.2
20260503175859 64 163 1.0 3.0 0.00 2.20 0.00 44 30.2
20260503175359 64 208 2.0 2.0 0.00 2.20 0.00 43 30.2
20260503174905 64 135 0.0 2.0 0.00 2.20 0.00 44 30.2
20260503174359 63 159 1.0 2.0 0.00 2.20 0.00 46 30.2
20260503173858 64 158 0.0 2.0 0.00 2.20 0.00 45 30.2
20260503173400 63 260 0.0 2.0 0.00 2.20 0.00 44 30.2
20260503172859 63 220 1.0 3.0 0.00 2.20 0.00 44 30.2
20260503172359 63 210 2.0 4.0 0.00 2.20 0.00 45 30.2
20260503171859 63 164 1.0 3.0 0.00 2.20 0.00 46 30.2
20260503170858 62 282 2.0 4.0 0.00 2.20 0.00 45 30.2
20260503170358 61 309 1.0 4.0 0.00 2.20 0.00 47 30.2
20260503150359 57 166 0.0 2.0 0.00 2.20 0.00 60 30.2
20260503131359 49 310 0.0 2.0 0.00 2.20 0.00 79 30.2
20260503130859 49 300 0.0 1.0 0.00 2.20 0.00 80 30.2